STARLINK-32179, 60734

Orbit data source: Space-Track

STARLINK-32179, 60734 is a payload satellite owned by SpaceX/Seattle (US) in LEO that was launched on Wed, 28 Aug 2024 UTC via an FALCON 9 launch vehicle from the Air Force Eastern Test Range (AFETR). Payload-class satellites include a variety of spacecraft equipped with specific instruments for various scientific and technological missions. These include communications satellites like Starlink; space stations such as the ISS; scientific satellites like the Hubble; Earth observation satellites from companies like Planet Labs, Umbra, and HawkEye 360; GPS; miniature CubeSats for education and research; and military/defense satellites.

Loading next visibility...
Identifier
60734, 2024-152Q
Orbit
LEO
Country
Flag of USUS
Related business
Manufacturer
SpaceX/Seattle
Mission
Operational Commercial Communications
Bus & Motor
STARLINK V2M, Unknown motor
Mass
730 kg wet, ~700 kg dry
Launch date (UTC)
2024-08-28 (2 years ago)
Launch vehicle
FALCON 9
Launch site
Air Force Eastern Test Range (AFETR)
Object type
Payload
Rocket body
Debris
Shape & HBR
Box + 2 Pan, 17.7 m
Radar Cross Section
33.884 m², Large (>1 m²)

Expand to show TLE details & history
Last TLE update: 1 day ago

TLE from 1 day ago
0 STARLINK-32179
1 60734U 24152Q   26125.04481420  .00000984  00000-0  45342-4 0  9996
2 60734  53.1596   7.0520 0001113  87.1432 272.9696 15.30199262 95346
Epoch: 2026-05-05T01:04Z
TLE epoch observation values (Epoch: 2026-05-05T01:04:31.946Z)
Latitude
-0.00005°
Longitude
127.99355°
Altitude
476.078 km
Speed
7.629 km/s
True Right ascension
00h 28m 12s
True Declination
0° 00' 00"
Sunlit
Object was in daylight at epoch
Visualization orbit readout
Latitude
Unknown
Longitude
Unknown
Altitude
Unknown
Speed
Unknown
Apparent Right ascension
Unknown
Apparent Declination
Unknown
Sunlit
N/A
Visualization observer readout
Local Sidereal Time
11:31:58
Azimuth
Unknown
Elevation
Unknown
Doppler factor
Unknown
Orbital elements
Apogee altitude
476.237 km
Perigee altitude
474.711 km
Semi-major axis
6,853.611 km
Eccentricity
0.00011
Inclination
53.1596°
RAAN
7.052°
Arg. of periapsis
87.1432°
True anomaly
272.95686°
Mean anomaly
272.9696°
Eccentric anomaly
272.96323°
Mean motion
3.82529 °/min
Orbital period
94.11 mins
BSTAR
0.000045342
Loading maneuver chart data...
Computing Atmospheric mass density...
Loading historical data...
Loading historical data...
Loading historical data...
Loading historical data...
Loading historical data...
Loading historical data...
Loading historical data...

Documentation

Showing up to 5 results
|